Date String (YYYY-MM-DD hh:mm:ss) UTC,Instrument flags,absolute air pressure of the measurement (hPa),sample flow rate (lpm),inlet stack bypass flow (lpm),air temperature of the measurement (°C),ambient temperature measured by the external sensor (°C),aerosol sample conditioner tube jacket temperature (°C),OPC LED temperature (°C),internal box temperature (°C),relative humidity of the measurement (%),span deviation,mass concentration of particles derived from Lorenz-Mie calculation of OPC scattering (μg/m³),mass concentration of particles derived from Lorenz-Mie calculation of OPC scattering (μg/m³),mass concentration of particles derived from Lorenz-Mie calculation of OPC scattering (μg/m³)
DateTimeUTC,F1_M11,P_M11,Q1_M11,Q2_M11,T1_M11,T2_M11,T3_M11,T4_M11,T5_M11,U1_M11,ZSPAN_M11,X0_M11,X2_M11,X1_M11
2023-07-03 11:00:00,SystemResetWarning,0831.7,5.01,000.00,029.9,028.6,000.0,038.5,031.4,20.3,0000.0,0010.10,0004.56,0004.09
2023-07-03 11:01:00,SystemResetWarning,0832.1,5.00,000.00,029.9,028.6,000.0,038.5,031.4,20.3,0000.0,0009.74,0004.57,0004.11
2023-07-03 11:02:00,SystemResetWarning,0832.3,5.00,000.00,030.0,028.6,000.0,038.5,031.5,20.6,0000.0,0009.60,0004.60,0004.12
2023-07-03 11:03:00,SystemResetWarning,0832.1,4.99,000.00,030.0,028.6,000.0,038.5,031.5,20.7,0000.0,0009.46,0004.64,0004.13
2023-07-03 11:04:00,SystemResetWarning,0832.3,5.00,000.00,030.0,028.6,000.0,038.5,031.5,20.7,0000.0,0009.77,0004.65,0004.12
2023-07-03 11:05:00,SystemResetWarning,0832.0,5.00,000.00,030.0,028.6,000.0,038.5,031.5,20.5,0000.0,0009.83,0004.65,0004.13
2023-07-03 11:06:00,SystemResetWarning,0832.4,5.00,000.00,030.0,028.6,000.0,038.5,031.5,20.3,0000.0,0009.66,0004.63,0004.13
2023-07-03 11:07:00,SystemResetWarning,0831.9,5.00,000.00,030.0,028.6,000.0,038.5,031.5,20.2,0000.0,0009.31,0004.61,0004.14
2023-07-03 11:08:00,SystemResetWarning,0831.7,5.00,000.00,030.0,028.7,000.0,038.5,031.5,19.8,0000.0,0008.89,0004.59,0004.15
2023-07-03 11:09:00,SystemResetWarning,0831.7,5.00,000.00,030.0,028.7,000.0,038.6,031.5,19.6,0000.0,0008.54,0004.57,0004.15
2023-07-03 11:10:00,SystemResetWarning,0831.7,5.00,000.00,030.0,028.7,000.0,038.6,031.5,19.1,0000.0,0008.66,0004.54,0004.15
2023-07-03 11:11:00,SystemResetWarning,0831.7,4.99,000.00,030.0,028.1,000.0,038.5,031.5,19.3,0000.0,0008.79,0004.54,0004.14
2023-07-03 11:12:00,SystemResetWarning,0831.7,5.00,000.00,030.0,025.9,000.0,038.4,031.2,19.0,0000.0,0008.79,0004.55,0004.13
2023-07-03 11:13:00,SystemResetWarning,0831.7,5.00,000.00,029.8,025.0,000.0,038.3,030.9,19.2,0000.0,0008.80,0004.55,0004.11
2023-07-03 11:14:00,SystemResetWarning,0831.7,5.01,000.00,029.7,025.1,000.0,038.3,030.6,19.4,0000.0,0008.62,0004.48,0004.09
2023-07-03 11:15:00,SystemResetWarning,0831.7,5.00,000.00,029.6,025.5,000.0,038.3,030.6,19.2,0000.0,0008.42,0004.48,0004.08
2023-07-03 11:16:00,SystemResetWarning,0831.7,5.00,000.00,029.5,026.0,000.0,038.2,030.6,19.2,0000.0,0008.21,0004.45,0004.06
2023-07-03 11:17:00,SystemResetWarning,0831.7,4.99,000.00,029.5,026.3,000.0,038.2,030.7,19.6,0000.0,0008.08,0004.42,0004.04
2023-07-03 11:18:00,SystemResetWarning,0831.7,4.99,000.00,029.4,026.7,000.0,038.2,030.7,19.4,0000.0,0007.98,0004.38,0004.02
2023-07-03 11:19:00,SystemResetWarning,0831.7,5.00,000.00,029.4,027.0,000.0,038.2,030.8,18.9,0000.0,0008.06,0004.38,0004.00
2023-07-03 11:20:00,SystemResetWarning,0831.7,5.01,000.00,029.4,027.2,000.0,038.2,030.8,18.9,0000.0,0008.09,0004.38,0003.99
2023-07-03 11:21:00,SystemResetWarning,0831.7,5.01,000.00,029.4,027.4,000.0,038.1,030.8,18.9,0000.0,0007.63,0004.36,0003.98
2023-07-03 11:22:00,SystemResetWarning,0831.7,4.99,000.00,029.4,027.5,000.0,038.1,030.9,19.1,0000.0,0007.22,0004.33,0003.97
2023-07-03 11:23:00,SystemResetWarning,0831.7,5.00,000.00,029.4,027.6,000.0,038.1,030.9,19.2,0000.0,0006.97,0004.28,0003.96
2023-07-03 11:24:00,SystemResetWarning,0832.2,5.00,000.00,029.5,027.8,000.0,038.1,030.9,18.9,0000.0,0006.80,0004.26,0003.96
2023-07-03 11:25:00,SystemResetWarning,0832.3,5.00,000.00,029.5,027.8,000.0,038.1,030.9,18.7,0000.0,0006.97,0004.23,0003.95
2023-07-03 11:26:00,SystemResetWarning,0832.0,5.00,000.00,029.5,027.9,000.0,038.1,030.9,18.6,0000.0,0007.34,0004.20,0003.94
2023-07-03 11:27:00,SystemResetWarning,0831.8,5.00,000.00,029.5,028.0,000.0,038.1,031.0,18.7,0000.0,0007.43,0004.22,0003.93
2023-07-03 11:28:00,SystemResetWarning,0831.8,5.00,000.00,029.5,028.0,000.0,038.1,031.0,18.9,0000.0,0007.55,0004.23,0003.92
2023-07-03 11:29:00,SystemResetWarning,0831.8,5.01,000.00,029.5,028.0,000.0,038.1,031.0,18.9,0000.0,0007.86,0004.24,0003.91
2023-07-03 11:30:00,SystemResetWarning,0831.9,5.01,000.00,029.5,028.1,000.0,038.1,031.0,18.9,0000.0,0007.76,0004.21,0003.90
2023-07-03 11:31:00,SystemResetWarning,0831.9,5.00,000.00,029.5,028.1,000.0,038.1,031.0,18.8,0000.0,0007.89,0004.21,0003.88
2023-07-03 11:32:00,SystemResetWarning,0831.8,5.00,000.00,029.6,028.1,000.0,038.1,031.1,18.9,0000.0,0007.91,0004.20,0003.86
2023-07-03 11:33:00,SystemResetWarning,0831.8,5.00,000.00,029.6,028.1,000.0,038.1,031.1,18.7,0000.0,0007.96,0004.22,0003.84
2023-07-03 11:34:00,SystemResetWarning,0831.8,5.00,000.00,029.6,028.2,000.0,038.1,031.1,18.4,0000.0,0008.04,0004.25,0003.85
2023-07-03 11:35:00,SystemResetWarning,0831.8,5.00,000.00,029.6,028.2,000.0,038.1,031.1,18.4,0000.0,0008.18,0004.26,0003.84
2023-07-03 11:36:00,SystemResetWarning,0831.8,5.00,000.00,029.6,028.2,000.0,038.1,031.1,17.4,0000.0,0008.35,0004.26,0003.83
2023-07-03 11:37:00,SystemResetWarning,0831.7,4.99,000.00,029.6,028.2,000.0,038.1,031.1,17.1,0000.0,0008.50,0004.29,0003.82
2023-07-03 11:38:00,SystemResetWarning,0831.9,4.99,000.00,029.6,028.2,000.0,038.2,031.1,17.0,0000.0,0008.52,0004.27,0003.80
2023-07-03 11:39:00,SystemResetWarning,0831.8,4.99,000.00,029.6,028.2,000.0,038.2,031.1,17.0,0000.0,0008.67,0004.22,0003.77
2023-07-03 11:40:00,SystemResetWarning,0832.1,4.99,000.00,029.6,028.3,000.0,038.2,031.2,17.1,0000.0,0008.59,0004.20,0003.76
2023-07-03 11:41:00,SystemResetWarning,0831.8,5.00,000.00,029.7,028.3,000.0,038.2,031.2,17.1,0000.0,0008.55,0004.20,0003.75
2023-07-03 11:42:00,SystemResetWarning,0831.8,5.01,000.00,029.7,028.3,000.0,038.2,031.2,17.1,0000.0,0008.35,0004.16,0003.74
2023-07-03 11:43:00,SystemResetWarning,0831.9,5.01,000.00,029.7,028.3,000.0,038.2,031.2,17.5,0000.0,0008.32,0004.14,0003.74
2023-07-03 11:44:00,SystemResetWarning,0831.8,5.00,000.00,029.7,028.3,000.0,038.2,031.2,17.7,0000.0,0008.26,0004.13,0003.73
2023-07-03 11:45:00,SystemResetWarning,0831.8,4.99,000.00,029.7,028.3,000.0,038.2,031.2,17.7,0000.0,0008.24,0004.12,0003.71
2023-07-03 11:46:00,SystemResetWarning,0831.8,4.99,000.00,029.7,028.3,000.0,038.2,031.2,17.7,0000.0,0008.38,0004.10,0003.71
2023-07-03 11:47:00,SystemResetWarning,0831.8,5.00,000.00,029.7,028.4,000.0,038.2,031.2,17.7,0000.0,0008.16,0004.08,0003.71
2023-07-03 11:48:00,SystemResetWarning,0831.9,5.01,000.00,029.7,028.4,000.0,038.3,031.2,17.7,0000.0,0007.64,0004.05,0003.71
2023-07-03 11:49:00,SystemResetWarning,0831.9,5.00,000.00,029.7,028.4,000.0,038.3,031.2,18.0,0000.0,0007.61,0004.04,0003.71
2023-07-03 11:50:00,SystemResetWarning,0831.9,5.00,000.00,029.7,028.4,000.0,038.3,031.2,18.2,0000.0,0007.32,0004.07,0003.73
2023-07-03 11:51:00,SystemResetWarning,0831.9,5.00,000.00,029.7,028.4,000.0,038.3,031.2,18.2,0000.0,0007.35,0004.09,0003.74
2023-07-03 11:52:00,SystemResetWarning,0832.0,4.99,000.00,029.7,028.4,000.0,038.3,031.2,18.0,0000.0,0007.48,0004.09,0003.75
2023-07-03 11:53:00,SystemResetWarning,0832.0,4.99,000.00,029.7,028.4,000.0,038.3,031.2,17.9,0000.0,0007.47,0004.10,0003.76
2023-07-03 11:54:00,SystemResetWarning,0832.0,5.00,000.00,029.8,028.4,000.0,038.3,031.2,18.1,0000.0,0007.66,0004.12,0003.77
2023-07-03 11:55:00,SystemResetWarning,0832.0,5.00,000.00,029.8,028.4,000.0,038.3,031.3,17.8,0000.0,0007.61,0004.11,0003.78
2023-07-03 11:56:00,SystemResetWarning,0831.9,5.00,000.00,029.8,028.4,000.0,038.3,031.3,18.0,0000.0,0008.06,0004.10,0003.78
2023-07-03 11:57:00,SystemResetWarning,0832.0,5.00,000.00,029.8,028.5,000.0,038.3,031.3,18.8,0000.0,0007.85,0004.09,0003.78
2023-07-03 11:58:00,SystemResetWarning,0832.0,4.98,000.00,029.8,028.5,000.0,038.4,031.3,19.3,0000.0,0008.30,0004.10,0003.78
2023-07-03 11:59:00,SystemResetWarning,0832.0,5.00,000.00,029.8,028.5,000.0,038.4,031.3,19.3,0000.0,0008.98,0004.12,0003.78
